• In Belarus
  • List of Countries
  • For 7 days
  • Water Temperature
  • Satellite Maps
  • Weather Map
  • Weather Widgets
  • user-avatar
    Login

    Hourly Weather Bulgan

    Today, 25 March, Monday

    Time Temperature Precipitation Wind Pressure Humidity
    00:00 -4°C° 0 mm 2 mps 622 mmHg 36%
    01:00 -4°C° 0 mm 2 mps 622 mmHg 36%
    02:00 -4°C° 0 mm 2 mps 622 mmHg 38%
    03:00 -5°C° 0 mm 2 mps 622 mmHg 39%
    04:00 -5°C° 0 mm 2 mps 622 mmHg 40%
    05:00 -5°C° 0 mm 2 mps 623 mmHg 41%
    06:00 -5°C° 0 mm 2 mps 623 mmHg 41%
    07:00 -4°C° 0 mm 2 mps 623 mmHg 41%
    08:00 -4°C° 0 mm 3 mps 623 mmHg 37%
    09:00 -1°C° 0 mm 3 mps 624 mmHg 33%
    10:00 0°C° 0 mm 3 mps 624 mmHg 29%
    11:00 +1°C° 0 mm 3 mps 624 mmHg 26%
    12:00 +1°C° 0 mm 4 mps 624 mmHg 24%
    13:00 +3°C° 0 mm 4 mps 624 mmHg 21%
    14:00 +3°C° 0 mm 4 mps 624 mmHg 22%
    15:00 +3°C° 0 mm 4 mps 623 mmHg 22%
    16:00 +4°C° 0 mm 4 mps 623 mmHg 22%
    17:00 +1°C° 0 mm 4 mps 622 mmHg 26%
    18:00 +1°C° 0 mm 3 mps 622 mmHg 30%
    19:00 -1°C° 0 mm 2 mps 621 mmHg 35%
    20:00 -1°C° 0 mm 3 mps 621 mmHg 37%
    21:00 -2°C° 0 mm 4 mps 621 mmHg 39%
    22:00 -2°C° 0 mm 5 mps 621 mmHg 41%
    23:00 -4°C° 0 mm 5 mps 621 mmHg 41%

    Tomorrow, 26 March, Tuesday

    Time Temperature Precipitation Wind Pressure Humidity
    00:00 -4°C° 0 mm 5 mps 622 mmHg 42%
    01:00 -4°C° 0 mm 5 mps 622 mmHg 43%
    02:00 -5°C° 0 mm 5 mps 622 mmHg 46%
    03:00 -4°C° 0 mm 4 mps 623 mmHg 48%
    04:00 -5°C° 0 mm 4 mps 623 mmHg 51%
    05:00 -5°C° 0.1 mm 3 mps 624 mmHg 58%
    06:00 -6°C° 0.1 mm 3 mps 624 mmHg 66%
    07:00 -6°C° 0.1 mm 3 mps 625 mmHg 73%
    08:00 -6°C° 0.5 mm 3 mps 625 mmHg 77%
    09:00 -8°C° 0.5 mm 4 mps 626 mmHg 80%
    10:00 -8°C° 0.5 mm 4 mps 626 mmHg 84%
    11:00 -8°C° 0.5 mm 4 mps 626 mmHg 82%
    12:00 -8°C° 0.5 mm 5 mps 627 mmHg 79%
    13:00 -8°C° 0.5 mm 5 mps 627 mmHg 76%
    14:00 -9°C° 0.2 mm 6 mps 627 mmHg 72%
    15:00 -9°C° 0.2 mm 6 mps 628 mmHg 67%
    16:00 -9°C° 0.2 mm 6 mps 628 mmHg 63%
    17:00 -8°C° 0 mm 5 mps 629 mmHg 64%
    18:00 -9°C° 0 mm 4 mps 629 mmHg 66%
    19:00 -9°C° 0 mm 3 mps 630 mmHg 67%
    20:00 -9°C° 0 mm 3 mps 630 mmHg 68%
    21:00 -10°C° 0 mm 3 mps 631 mmHg 69%
    22:00 -10°C° 0 mm 3 mps 631 mmHg 70%
    23:00 -10°C° 0 mm 2 mps 631 mmHg 73%

    Day after tomorrow, 27 March, Wednesday

    Time Temperature Precipitation Wind Pressure Humidity
    00:00 -12°C° 0 mm 2 mps 631 mmHg 76%
    01:00 -11°C° 0 mm 1 mps 631 mmHg 78%
    02:00 -11°C° 0 mm 1 mps 631 mmHg 80%
    03:00 -12°C° 0 mm 0 mps 631 mmHg 81%
    04:00 -12°C° 0 mm 0 mps 631 mmHg 82%
    05:00 -12°C° 0 mm 0 mps 631 mmHg 82%
    06:00 -12°C° 0 mm 1 mps 631 mmHg 82%
    07:00 -12°C° 0 mm 1 mps 631 mmHg 81%
    08:00 -11°C° 0 mm 1 mps 632 mmHg 72%
    09:00 -9°C° 0 mm 1 mps 632 mmHg 64%
    10:00 -9°C° 0 mm 2 mps 632 mmHg 55%
    11:00 -8°C° 0 mm 2 mps 632 mmHg 52%
    12:00 -7°C° 0 mm 2 mps 631 mmHg 49%
    13:00 -7°C° 0 mm 3 mps 631 mmHg 46%
    14:00 -6°C° 0 mm 3 mps 630 mmHg 46%
    15:00 -6°C° 0 mm 3 mps 630 mmHg 45%
    16:00 -5°C° 0 mm 3 mps 629 mmHg 45%
    17:00 -7°C° 0 mm 3 mps 628 mmHg 51%
    18:00 -8°C° 0 mm 3 mps 628 mmHg 56%
    19:00 -8°C° 0 mm 2 mps 627 mmHg 61%
    20:00 -8°C° 0 mm 2 mps 627 mmHg 63%
    21:00 -10°C° 0 mm 3 mps 627 mmHg 65%
    22:00 -10°C° 0 mm 3 mps 627 mmHg 67%
    23:00 -10°C° 0 mm 3 mps 626 mmHg 68%

    28 March, Thursday

    Time Temperature Precipitation Wind Pressure Humidity
    00:00 -10°C° 0 mm 3 mps 626 mmHg 69%
    01:00 -12°C° 0 mm 3 mps 625 mmHg 70%
    02:00 -12°C° 0 mm 3 mps 625 mmHg 70%
    03:00 -12°C° 0 mm 3 mps 625 mmHg 70%
    04:00 -12°C° 0 mm 3 mps 625 mmHg 70%
    05:00 -10°C° 0 mm 2 mps 625 mmHg 69%
    06:00 -10°C° 0 mm 2 mps 625 mmHg 69%
    07:00 -10°C° 0 mm 2 mps 625 mmHg 69%
    08:00 -9°C° 0 mm 2 mps 626 mmHg 62%
    09:00 -7°C° 0 mm 2 mps 626 mmHg 55%
    10:00 -7°C° 0 mm 3 mps 627 mmHg 48%
    11:00 -6°C° 0 mm 3 mps 627 mmHg 44%
    12:00 -5°C° 0 mm 3 mps 627 mmHg 41%
    13:00 -4°C° 0 mm 4 mps 627 mmHg 37%
    14:00 -4°C° 0 mm 4 mps 627 mmHg 36%
    15:00 -3°C° 0 mm 4 mps 627 mmHg 34%
    16:00 -4°C° 0 mm 5 mps 626 mmHg 33%
    17:00 -4°C° 0 mm 4 mps 626 mmHg 37%
    18:00 -6°C° 0 mm 3 mps 626 mmHg 40%
    19:00 -6°C° 0 mm 2 mps 626 mmHg 44%
    20:00 -6°C° 0 mm 2 mps 627 mmHg 44%
    21:00 -6°C° 0 mm 2 mps 627 mmHg 45%
    22:00 -6°C° 0 mm 1 mps 628 mmHg 45%
    23:00 -6°C° 0 mm 1 mps 628 mmHg 48%

    29 March, Friday

    Time Temperature Precipitation Wind Pressure Humidity
    00:00 -7°C° 0 mm 1 mps 628 mmHg 51%
    01:00 -7°C° 0 mm 1 mps 628 mmHg 53%
    02:00 -7°C° 0 mm 1 mps 628 mmHg 55%
    03:00 -7°C° 0 mm 1 mps 629 mmHg 57%
    04:00 -7°C° 0 mm 1 mps 629 mmHg 59%
    05:00 -8°C° 0 mm 2 mps 630 mmHg 60%
    06:00 -8°C° 0 mm 2 mps 630 mmHg 61%
    07:00 -8°C° 0 mm 2 mps 631 mmHg 61%
    08:00 -8°C° 0 mm 3 mps 631 mmHg 57%
    09:00 -8°C° 0 mm 4 mps 632 mmHg 52%
    10:00 -7°C° 0 mm 5 mps 632 mmHg 47%
    11:00 -5°C° 0 mm 4 mps 632 mmHg 45%
    12:00 -4°C° 0 mm 4 mps 632 mmHg 43%
    13:00 -4°C° 0 mm 4 mps 632 mmHg 41%
    14:00 -3°C° 0 mm 4 mps 632 mmHg 40%
    15:00 -3°C° 0 mm 4 mps 632 mmHg 39%
    16:00 -3°C° 0 mm 4 mps 632 mmHg 38%
    17:00 -4°C° 0 mm 3 mps 631 mmHg 43%
    18:00 -4°C° 0 mm 2 mps 631 mmHg 47%
    19:00 -3°C° 0 mm 1 mps 631 mmHg 51%
    20:00 -3°C° 0 mm 1 mps 631 mmHg 53%
    21:00 -3°C° 0 mm 1 mps 631 mmHg 55%
    22:00 -4°C° 0 mm 1 mps 631 mmHg 57%
    23:00 -4°C° 0 mm 1 mps 631 mmHg 60%

    30 March, Saturday

    Time Temperature Precipitation Wind Pressure Humidity
    00:00 -6°C° 0 mm 1 mps 631 mmHg 63%
    01:00 -6°C° 0 mm 1 mps 631 mmHg 66%
    02:00 -7°C° 0 mm 1 mps 630 mmHg 69%
    03:00 -7°C° 0 mm 1 mps 630 mmHg 72%
    04:00 -8°C° 0 mm 1 mps 630 mmHg 75%
    05:00 -8°C° 0 mm 1 mps 630 mmHg 75%
    06:00 -8°C° 0 mm 1 mps 631 mmHg 75%
    07:00 -8°C° 0 mm 0 mps 631 mmHg 75%
    08:00 -6°C° 0 mm 1 mps 631 mmHg 67%
    09:00 -4°C° 0 mm 1 mps 631 mmHg 59%
    10:00 -4°C° 0 mm 2 mps 631 mmHg 51%
    11:00 -3°C° 0 mm 2 mps 631 mmHg 42%
    12:00 -2°C° 0 mm 3 mps 630 mmHg 34%
    13:00 0°C° 0 mm 3 mps 630 mmHg 26%
    14:00 0°C° 0 mm 3 mps 630 mmHg 24%
    15:00 +1°C° 0 mm 3 mps 629 mmHg 22%
    16:00 +1°C° 0 mm 3 mps 629 mmHg 20%
    17:00 +1°C° 0 mm 2 mps 628 mmHg 23%
    18:00 -2°C° 0 mm 2 mps 628 mmHg 26%
    19:00 -1°C° 0 mm 1 mps 627 mmHg 29%
    20:00 -1°C° 0 mm 1 mps 627 mmHg 29%
    21:00 -2°C° 0 mm 1 mps 627 mmHg 30%
    22:00 -2°C° 0 mm 1 mps 627 mmHg 30%
    23:00 -2°C° 0 mm 1 mps 627 mmHg 31%
    Show more